Weather in Detroit

United States     42˚19′58″N   83˚02′35″W
temp.,
°C
wind,
m/s
gust,
m/s
humid.,
%
clouds,
%
prec.,
mm/h
press.,
hPa
HPBL,
m
28 november, sat
sat2801:00+4˚wnw487075 0.1 1017622
04:00+3˚wnw37660 0.0 1020598
07:00+2˚wnw36700 0.0 1021404
10:00+3˚wsw356312 0.0 1022465
13:00+5˚sw475419 0.0 1021690
16:00+6˚sw585145 0.0 1019701
19:00+5˚sw4105722 0.0 1019451
22:00+4˚sw513570 0.0 1019448
29 november, sun
sun2901:00+4˚wsw512620 0.0 1019468
04:00+3˚sw410700 0.0 1018358
07:00+2˚sw48750 0.0 1017300
10:00+4˚sw612680 0.0 1018460
13:00+8˚sw595734 0.0 1015516
16:00+8˚ssw4859100 0.0 1014534
19:00+6˚sw3866100 0.0 1014320
22:00+6˚wsw2667100 0.0 1013226
30 november, mon
mon3001:00+5˚nw2473100 0.0 1012263
04:00+4˚n2679100 0.0 1011442
07:00+4˚n5973100 0.0 1010686
10:00+2˚n61193100 0.9 1009599
13:00+2˚nnw71293100 2.1 1008655
16:00+1˚n71394100 0.6 1007786
19:00nnw71293100 1.5 1008815
22:00nnw71295100 0.7 1007843
1 december, tue
tue101:00nnw71395100 1.7 1007811
04:00nnw71395100 1.7 1007873
07:00−1˚nw61294100 3.3 1007829
10:00−1˚nw61194100 1.4 1006761
13:00−1˚nw61095100 2.4 1005718
16:00−1˚wnw51095100 1.4 1005750
19:00−1˚wnw51189100 1.9 1006899
22:00−1˚wnw4994100 0.2 1007704
2 december, wed
wed201:00−1˚w61191100 0.8 1008888
04:00−1˚w6128899 0.1 1009865
07:00+1˚w5128797 0.1 1010973
10:00+1˚w61292100 0.0 1012817
13:00+2˚w6118499 0.1 1013950
16:00+2˚wsw5117968 0.0 1014775
19:00+1˚wsw5127834 0.0 1017571
22:00wsw5117927 0.0 1017482